User: anonymous   Login
Location: Unspecified
(0.0000°N, 0.0000°E)
Time: 10:03:44
(UTC+00:00)
Language:

STARLINK-5808 - Orbit

View from above orbital plane
View from above orbital plane
View from above satellite
View from above satellite

Ground track
Ground track

The orbit is defined by the following mean orbital elements,

1 56927U          26145.37578098 +.00000000 +00000-0 -36314-4 0 00009
2 56927  43.0019 266.6665 0001264 268.4065  91.6642 15.27576513    09
Epoch (UTC): 25 May 2026 09:01:07
Eccentricity: 0.0001264
inclination: 43.0019°
perigee height: 482 km
apogee height: 484 km
right ascension of ascending node: 266.6665°
argument of perigee: 268.4065°
revolutions per day: 15.27576513
mean anomaly at epoch: 91.6642°

The dashed part of the orbit path shows where the satellite is in the earth's shadow,  

DLR